Year,Month,Day,Hour,Minute,Value (Times are PST for insolation in W/m^2)
2010,09,09,12,22,803.00
2010,09,09,12,23,803.00
2010,09,09,12,24,803.00
2010,09,09,12,25,756.10
2010,09,09,12,26,735.40
2010,09,09,12,27,731.60
2010,09,09,12,28,729.70
2010,09,09,12,29,742.00
2010,09,09,12,30,742.00
2010,09,09,12,31,742.00
2010,09,09,12,32,742.00
2010,09,09,12,33,742.00
2010,09,09,12,34,734.80
2010,09,09,12,35,733.00
2010,09,09,12,36,733.00
2010,09,09,12,37,733.00
2010,09,09,12,38,712.90
2010,09,09,12,39,684.90
2010,09,09,12,40,684.00
2010,09,09,12,41,680.80
2010,09,09,12,42,679.30
2010,09,09,12,43,684.40
2010,09,09,12,44,685.40
2010,09,09,12,45,684.80
2010,09,09,12,46,686.00
2010,09,09,12,47,688.10
2010,09,09,12,48,692.20
2010,09,09,12,49,692.80
2010,09,09,12,50,688.40
2010,09,09,12,51,687.00
2010,09,09,12,52,689.00
2010,09,09,12,53,689.00
2010,09,09,12,54,687.70
2010,09,09,12,55,688.70
2010,09,09,12,56,689.20
2010,09,09,12,57,692.20
2010,09,09,12,58,689.00
2010,09,09,12,59,692.00
2010,09,09,13,00,696.00
2010,09,09,13,01,693.90
2010,09,09,13,02,691.40
2010,09,09,13,03,692.70
2010,09,09,13,04,691.00
2010,09,09,13,05,691.00
2010,09,09,13,06,691.80
2010,09,09,13,07,691.90
2010,09,09,13,08,691.00
2010,09,09,13,09,695.20
2010,09,09,13,10,700.50
2010,09,09,13,11,700.00
2010,09,09,13,12,699.40
2010,09,09,13,13,694.80
2010,09,09,13,14,689.90
2010,09,09,13,15,691.70
2010,09,09,13,16,693.80
2010,09,09,13,17,693.10
2010,09,09,13,18,694.00
2010,09,09,13,19,696.00
2010,09,09,13,20,700.00
2010,09,09,13,21,700.00
2010,09,09,13,22,695.50
2010,09,09,13,23,693.00
2010,09,09,13,24,692.90
2010,09,09,13,25,690.70
2010,09,09,13,26,689.00
2010,09,09,13,27,689.00
2010,09,09,13,28,689.00
2010,09,09,13,29,691.90
2010,09,09,13,30,703.20
2010,09,09,13,31,694.40
2010,09,09,13,32,690.60
2010,09,09,13,33,688.30
2010,09,09,13,34,687.00
2010,09,09,13,35,688.10
2010,09,09,13,36,692.30
2010,09,09,13,37,699.60
2010,09,09,13,38,702.30
2010,09,09,13,39,696.30
2010,09,09,13,40,689.30
2010,09,09,13,41,702.10
2010,09,09,13,42,699.40
2010,09,09,13,43,691.00
2010,09,09,13,44,687.80
2010,09,09,13,45,687.00
2010,09,09,13,46,685.60
2010,09,09,13,47,684.00
2010,09,09,13,48,683.10
2010,09,09,13,49,683.10
2010,09,09,13,50,672.80
2010,09,09,13,51,679.90
2010,09,09,13,52,682.10
2010,09,09,13,53,683.60
2010,09,09,13,54,682.00
2010,09,09,13,55,681.10
2010,09,09,13,56,680.00
2010,09,09,13,57,676.50
2010,09,09,13,58,681.00
2010,09,09,13,59,679.40
2010,09,09,14,00,687.40
2010,09,09,14,01,674.30
2010,09,09,14,02,647.70
2010,09,09,14,03,684.00
2010,09,09,14,04,678.50
2010,09,09,14,05,675.40
2010,09,09,14,06,676.60
2010,09,09,14,07,673.30
2010,09,09,14,08,674.40
2010,09,09,14,09,672.10
2010,09,09,14,10,673.20
2010,09,09,14,11,675.00
2010,09,09,14,12,671.80
2010,09,09,14,13,670.10
2010,09,09,14,14,670.20
2010,09,09,14,15,670.70
2010,09,09,14,16,670.50
2010,09,09,14,17,671.00
2010,09,09,14,18,671.00
2010,09,09,14,19,671.00
2010,09,09,14,20,672.80
2010,09,09,14,21,671.40
2010,09,09,14,22,673.60
2010,09,09,14,23,673.20
2010,09,09,14,24,668.10
2010,09,09,14,25,666.00
2010,09,09,14,26,662.00
2010,09,09,14,27,661.00
2010,09,09,14,28,660.60
2010,09,09,14,29,658.10
2010,09,09,14,30,656.40
2010,09,09,14,31,657.00
2010,09,09,14,32,656.30
2010,09,09,14,33,654.40
2010,09,09,14,34,655.70
2010,09,09,14,35,653.30
2010,09,09,14,36,650.00
2010,09,09,14,37,650.00
2010,09,09,14,38,650.00
2010,09,09,14,39,648.00
2010,09,09,14,40,648.70
2010,09,09,14,41,646.90
2010,09,09,14,42,645.00
2010,09,09,14,43,644.40
2010,09,09,14,44,642.60
2010,09,09,14,45,642.00
2010,09,09,14,46,640.60
2010,09,09,14,47,638.30
2010,09,09,14,48,638.00
2010,09,09,14,49,638.00
2010,09,09,14,50,637.30
2010,09,09,14,51,635.50
2010,09,09,14,52,635.00
2010,09,09,14,53,633.70
2010,09,09,14,54,631.30
2010,09,09,14,55,629.10
2010,09,09,14,56,628.80
2010,09,09,14,57,628.00
2010,09,09,14,58,627.10
2010,09,09,14,59,623.70
2010,09,09,15,00,623.40
2010,09,09,15,01,622.40
2010,09,09,15,02,621.00
2010,09,09,15,03,619.00
2010,09,09,15,04,618.30
2010,09,09,15,05,616.10
2010,09,09,15,06,613.90
2010,09,09,15,07,613.00
2010,09,09,15,08,612.20
2010,09,09,15,09,608.40
2010,09,09,15,10,607.40
2010,09,09,15,11,605.00
2010,09,09,15,12,605.00
2010,09,09,15,13,605.00
2010,09,09,15,14,602.20
2010,09,09,15,15,601.00
2010,09,09,15,16,600.80
2010,09,09,15,17,597.60
2010,09,09,15,18,596.60
2010,09,09,15,19,596.30
2010,09,09,15,20,592.90
2010,09,09,15,21,592.00
2010,09,09,15,22,591.20
2010,09,09,15,23,587.20
2010,09,09,15,24,586.40
2010,09,09,15,25,584.30
2010,09,09,15,26,584.60
2010,09,09,15,27,582.90
2010,09,09,15,28,580.60
2010,09,09,15,29,578.40
2010,09,09,15,30,577.00
2010,09,09,15,31,576.50
2010,09,09,15,32,574.30
2010,09,09,15,33,573.00
2010,09,09,15,34,571.30
2010,09,09,15,35,568.60
2010,09,09,15,36,566.40
2010,09,09,15,37,564.10
2010,09,09,15,38,562.60
2010,09,09,15,39,561.60
2010,09,09,15,40,562.10
2010,09,09,15,41,559.90
2010,09,09,15,42,556.20
2010,09,09,15,43,556.70
2010,09,09,15,44,552.00
2010,09,09,15,45,548.00
2010,09,09,15,46,548.00
2010,09,09,15,47,547.50
2010,09,09,15,48,544.60
2010,09,09,15,49,541.60
2010,09,09,15,50,541.00
2010,09,09,15,51,539.80
2010,09,09,15,52,536.00
2010,09,09,15,53,535.40
2010,09,09,15,54,533.50
2010,09,09,15,55,530.70
2010,09,09,15,56,529.00
2010,09,09,15,57,529.00
2010,09,09,15,58,524.20
2010,09,09,15,59,523.60
2010,09,09,16,00,521.30
2010,09,09,16,01,519.60
2010,09,09,16,02,516.80
2010,09,09,16,03,513.70
2010,09,09,16,04,512.20
2010,09,09,16,05,511.90
2010,09,09,16,06,509.60
2010,09,09,16,07,506.60
2010,09,09,16,08,503.50
2010,09,09,16,09,501.80
2010,09,09,16,10,498.20
2010,09,09,16,11,497.00
2010,09,09,16,12,494.00
2010,09,09,16,13,492.00
2010,09,09,16,14,492.00
2010,09,09,16,15,490.60
2010,09,09,16,16,487.90
2010,09,09,16,17,484.30
2010,09,09,16,18,483.00
2010,09,09,16,19,482.90
2010,09,09,16,20,481.60
2010,09,09,16,21,478.60
2010,09,09,16,22,474.60
2010,09,09,16,23,471.80
2010,09,09,16,24,469.60
2010,09,09,16,25,468.10
2010,09,09,16,26,462.30
2010,09,09,16,27,462.00
2010,09,09,16,28,460.50
2010,09,09,16,29,456.10
2010,09,09,16,30,454.50
2010,09,09,16,31,452.70
2010,09,09,16,32,448.80
2010,09,09,16,33,447.80
2010,09,09,16,34,445.80
2010,09,09,16,35,444.30
2010,09,09,16,36,442.10
2010,09,09,16,37,439.90
2010,09,09,16,38,435.70
2010,09,09,16,39,432.30
2010,09,09,16,40,431.00
2010,09,09,16,41,430.20
2010,09,09,16,42,425.20
2010,09,09,16,43,422.00
2010,09,09,16,44,420.90
2010,09,09,16,45,420.00
2010,09,09,16,46,417.60
2010,09,09,16,47,414.80
2010,09,09,16,48,410.90
2010,09,09,16,49,409.30
2010,09,09,16,50,407.10
2010,09,09,16,51,406.00
2010,09,09,16,52,402.50
2010,09,09,16,53,399.40
2010,09,09,16,54,397.00
2010,09,09,16,55,395.60
2010,09,09,16,56,392.80
2010,09,09,16,57,389.10
2010,09,09,16,58,387.50
2010,09,09,16,59,385.70
2010,09,09,17,00,383.40
2010,09,09,17,01,380.90
2010,09,09,17,02,376.00
2010,09,09,17,03,375.00
2010,09,09,17,04,373.00
2010,09,09,17,05,370.60
2010,09,09,17,06,369.00
2010,09,09,17,07,365.00
2010,09,09,17,08,360.20
2010,09,09,17,09,359.50
2010,09,09,17,10,356.30
2010,09,09,17,11,354.10
2010,09,09,17,12,351.20
2010,09,09,17,13,350.00
2010,09,09,17,14,346.60
2010,09,09,17,15,343.10
2010,09,09,17,16,342.20
2010,09,09,17,17,338.10
2010,09,09,17,18,336.00
2010,09,09,17,19,334.90
2010,09,09,17,20,330.20
2010,09,09,17,21,329.00
2010,09,09,17,22,325.10
2010,09,09,17,23,322.80
2010,09,09,17,24,320.60
2010,09,09,17,25,316.60
2010,09,09,17,26,313.90
2010,09,09,17,27,313.00
2010,09,09,17,28,309.80
2010,09,09,17,29,307.90
2010,09,09,17,30,303.60
2010,09,09,17,31,301.70
2010,09,09,17,32,299.20
2010,09,09,17,33,295.90
2010,09,09,17,34,292.90
2010,09,09,17,35,290.40
2010,09,09,17,36,287.10
2010,09,09,17,37,286.20
2010,09,09,17,38,283.00
2010,09,09,17,39,281.20
2010,09,09,17,40,279.00
2010,09,09,17,41,264.30
2010,09,09,17,42,258.00
2010,09,09,17,43,266.40
2010,09,09,17,44,264.80
2010,09,09,17,45,262.70
2010,09,09,17,46,259.10
2010,09,09,17,47,257.50
2010,09,09,17,48,254.20
2010,09,09,17,49,250.60
2010,09,09,17,50,249.60
2010,09,09,17,51,246.00
2010,09,09,17,52,246.00
2010,09,09,17,53,243.00
2010,09,09,17,54,237.90
2010,09,09,17,55,236.30
2010,09,09,17,56,234.40
2010,09,09,17,57,230.10
2010,09,09,17,58,228.60
2010,09,09,17,59,225.90
2010,09,09,18,00,222.10
2010,09,09,18,01,220.40
2010,09,09,18,02,217.30
2010,09,09,18,03,214.40
2010,09,09,18,04,213.10
2010,09,09,18,05,211.80
2010,09,09,18,06,206.70
2010,09,09,18,07,204.20
2010,09,09,18,08,200.90
2010,09,09,18,09,199.40
2010,09,09,18,10,195.80
2010,09,09,18,11,192.10
2010,09,09,18,12,189.70
2010,09,09,18,13,188.00
2010,09,09,18,14,185.90
2010,09,09,18,15,181.90
2010,09,09,18,16,179.70
2010,09,09,18,17,176.40
2010,09,09,18,18,173.90
2010,09,09,18,19,171.80
2010,09,09,18,20,169.80
2010,09,09,18,21,166.10
2010,09,09,18,22,163.40
2010,09,09,18,23,160.60
2010,09,09,18,24,160.00
2010,09,09,18,25,155.20
2010,09,09,18,26,154.20
2010,09,09,18,27,150.10
2010,09,09,18,28,147.10
2010,09,09,18,29,144.80
2010,09,09,18,30,141.90
2010,09,09,18,31,139.40
2010,09,09,18,32,135.20
2010,09,09,18,33,134.40
2010,09,09,18,34,131.40
2010,09,09,18,35,130.00
2010,09,09,18,36,127.20
2010,09,09,18,37,123.70
2010,09,09,18,38,121.30
2010,09,09,18,39,118.10
2010,09,09,18,40,115.60
2010,09,09,18,41,114.00
2010,09,09,18,42,111.80
2010,09,09,18,43,109.00
2010,09,09,18,44,105.50
2010,09,09,18,45,102.40
2010,09,09,18,46,100.00
2010,09,09,18,47,97.80
2010,09,09,18,48,95.70
2010,09,09,18,49,92.10
2010,09,09,18,50,90.40
2010,09,09,18,51,87.20
2010,09,09,18,52,84.30
2010,09,09,18,53,82.90
2010,09,09,18,54,80.00
2010,09,09,18,55,76.70
2010,09,09,18,56,75.10
2010,09,09,18,57,72.90
2010,09,09,18,58,70.60
2010,09,09,18,59,69.20
2010,09,09,19,00,64.90
2010,09,09,19,01,61.10
2010,09,09,19,02,53.30
2010,09,09,19,03,44.80
2010,09,09,19,04,36.90
2010,09,09,19,05,28.20
2010,09,09,19,06,22.00
2010,09,09,19,07,21.00
2010,09,09,19,08,20.60
2010,09,09,19,09,18.70
2010,09,09,19,10,18.00
2010,09,09,19,11,18.00
2010,09,09,19,12,16.60
2010,09,09,19,13,16.00
2010,09,09,19,14,16.00
2010,09,09,19,15,16.00
2010,09,09,19,16,15.40
2010,09,09,19,17,14.00
2010,09,09,19,18,14.00
2010,09,09,19,19,14.00
2010,09,09,19,20,14.00
2010,09,09,19,21,12.10
2010,09,09,19,22,12.00
2010,09,09,19,23,11.70
2010,09,09,19,24,11.00
2010,09,09,19,25,11.00
2010,09,09,19,26,11.00
2010,09,09,19,27,11.00
2010,09,09,19,28,10.90
2010,09,09,19,29,9.00
2010,09,09,19,30,9.00
2010,09,09,19,31,9.00
2010,09,09,19,32,7.80
2010,09,09,19,33,7.00
2010,09,09,19,34,7.00
2010,09,09,19,35,7.00
2010,09,09,19,36,6.60
2010,09,09,19,37,5.00
2010,09,09,19,38,5.00
2010,09,09,19,39,5.00
2010,09,09,19,40,5.00
2010,09,09,19,41,5.00
2010,09,09,19,42,0.20
2010,09,09,19,43,0.00
2010,09,09,19,44,0.00
2010,09,09,19,45,0.00
2010,09,09,19,46,0.00
2010,09,09,19,47,0.00
2010,09,09,19,48,0.00
2010,09,09,19,49,0.00
2010,09,09,19,50,0.00
2010,09,09,19,51,0.00
2010,09,09,19,52,0.00
2010,09,09,19,53,0.00
2010,09,09,19,54,0.00
2010,09,09,19,55,0.00
2010,09,09,19,56,0.00
2010,09,09,19,57,0.00
2010,09,09,19,58,0.00
2010,09,09,19,59,0.00
2010,09,09,20,00,0.00
2010,09,09,20,01,0.00
2010,09,09,20,02,0.00
2010,09,09,20,03,0.00
2010,09,09,20,04,0.00
2010,09,09,20,05,0.00
2010,09,09,20,06,0.00
2010,09,09,20,07,0.00
2010,09,09,20,08,0.00
2010,09,09,20,09,0.00
2010,09,09,20,10,0.00
2010,09,09,20,11,0.00
2010,09,09,20,12,0.00
2010,09,09,20,13,0.00
2010,09,09,20,14,0.00
2010,09,09,20,15,0.00
2010,09,09,20,16,0.00
2010,09,09,20,17,0.00
2010,09,09,20,18,0.00
2010,09,09,20,19,0.00
2010,09,09,20,20,0.00
2010,09,09,20,21,0.00
2010,09,09,20,22,0.00
2010,09,09,20,23,0.00
2010,09,09,20,24,0.00
2010,09,09,20,25,0.00
2010,09,09,20,26,0.00
2010,09,09,20,27,0.00
2010,09,09,20,28,0.00
2010,09,09,20,29,0.00
2010,09,09,20,30,0.00
2010,09,09,20,31,0.00
2010,09,09,20,32,0.00
2010,09,09,20,33,0.00
2010,09,09,20,34,0.00
2010,09,09,20,35,0.00
2010,09,09,20,36,0.00
2010,09,09,20,37,0.00
2010,09,09,20,38,0.00
2010,09,09,20,39,0.00
2010,09,09,20,40,0.00
2010,09,09,20,41,0.00
2010,09,09,20,42,0.00
2010,09,09,20,43,0.00
2010,09,09,20,44,0.00
2010,09,09,20,45,0.00
2010,09,09,20,46,0.00
2010,09,09,20,47,0.00
2010,09,09,20,48,0.00
2010,09,09,20,49,0.00
2010,09,09,20,50,0.00
2010,09,09,20,51,0.00
2010,09,09,20,52,0.00
2010,09,09,20,53,0.00
2010,09,09,20,54,0.00
2010,09,09,20,55,0.00
2010,09,09,20,56,0.00
2010,09,09,20,57,0.00
2010,09,09,20,58,0.00
2010,09,09,20,59,0.00
2010,09,09,21,00,0.00
2010,09,09,21,01,0.00
2010,09,09,21,02,0.00
2010,09,09,21,03,0.00
2010,09,09,21,04,0.00
2010,09,09,21,05,0.00
2010,09,09,21,06,0.00
2010,09,09,21,07,0.00
2010,09,09,21,08,0.00
2010,09,09,21,09,0.00
2010,09,09,21,10,0.00
2010,09,09,21,11,0.00
2010,09,09,21,12,0.00
2010,09,09,21,13,0.00
2010,09,09,21,14,0.00
2010,09,09,21,15,0.00
2010,09,09,21,16,0.00
2010,09,09,21,17,0.00
2010,09,09,21,18,0.00
2010,09,09,21,19,0.00
2010,09,09,21,20,0.00
2010,09,09,21,21,0.00
2010,09,09,21,22,0.00
2010,09,09,21,23,0.00
2010,09,09,21,24,0.00
2010,09,09,21,25,0.00
2010,09,09,21,26,0.00
2010,09,09,21,27,0.00
2010,09,09,21,28,0.00
2010,09,09,21,29,0.00
2010,09,09,21,30,0.00
2010,09,09,21,31,0.00
2010,09,09,21,32,0.00
2010,09,09,21,33,0.00
2010,09,09,21,34,0.00
2010,09,09,21,35,0.00
2010,09,09,21,36,0.00
2010,09,09,21,37,0.00
2010,09,09,21,38,0.00
2010,09,09,21,39,0.00
2010,09,09,21,40,0.00
2010,09,09,21,41,0.00
2010,09,09,21,42,0.00
2010,09,09,21,43,0.00
2010,09,09,21,44,0.00
2010,09,09,21,45,0.00
2010,09,09,21,46,0.00
2010,09,09,21,47,0.00
2010,09,09,21,48,0.00
2010,09,09,21,49,0.00
2010,09,09,21,50,0.00
2010,09,09,21,51,0.00
2010,09,09,21,52,0.00
2010,09,09,21,53,0.00
2010,09,09,21,54,0.00
2010,09,09,21,55,0.00
2010,09,09,21,56,0.00
2010,09,09,21,57,0.00
2010,09,09,21,58,0.00
2010,09,09,21,59,0.00
2010,09,09,22,00,0.00
2010,09,09,22,01,0.00
2010,09,09,22,02,0.00
2010,09,09,22,03,0.00
2010,09,09,22,04,0.00
2010,09,09,22,05,0.00
2010,09,09,22,06,0.00
2010,09,09,22,07,0.00
2010,09,09,22,08,0.00
2010,09,09,22,09,0.00
2010,09,09,22,10,0.00
2010,09,09,22,11,0.00
2010,09,09,22,12,0.00
2010,09,09,22,13,0.00
2010,09,09,22,14,0.00
2010,09,09,22,15,0.00
2010,09,09,22,16,0.00
2010,09,09,22,17,0.00
2010,09,09,22,18,0.00
2010,09,09,22,19,0.00
2010,09,09,22,20,0.00
2010,09,09,22,21,0.00
2010,09,09,22,22,0.00
2010,09,09,22,23,0.00
2010,09,09,22,24,0.00
2010,09,09,22,25,0.00
2010,09,09,22,26,0.00
2010,09,09,22,27,0.00
2010,09,09,22,28,0.00
2010,09,09,22,29,0.00
2010,09,09,22,30,0.00
2010,09,09,22,31,0.00
2010,09,09,22,32,0.00
2010,09,09,22,33,0.00
2010,09,09,22,34,0.00
2010,09,09,22,35,0.00
2010,09,09,22,36,0.00
2010,09,09,22,37,0.00
2010,09,09,22,38,0.00
2010,09,09,22,39,0.00
2010,09,09,22,40,0.00
2010,09,09,22,41,0.00
2010,09,09,22,42,0.00
2010,09,09,22,43,0.00
2010,09,09,22,44,0.00
2010,09,09,22,45,0.00
2010,09,09,22,46,0.00
2010,09,09,22,47,0.00
2010,09,09,22,48,0.00
2010,09,09,22,49,0.00
2010,09,09,22,50,0.00
2010,09,09,22,51,0.00
2010,09,09,22,52,0.00
2010,09,09,22,53,0.00
2010,09,09,22,54,0.00
2010,09,09,22,55,0.00
2010,09,09,22,56,0.00
2010,09,09,22,57,0.00
2010,09,09,22,58,0.00
2010,09,09,22,59,0.00
2010,09,09,23,00,0.00
2010,09,09,23,01,0.00
2010,09,09,23,02,0.00
2010,09,09,23,03,0.00
2010,09,09,23,04,0.00
2010,09,09,23,05,0.00
2010,09,09,23,06,0.00
2010,09,09,23,07,0.00
2010,09,09,23,08,0.00
2010,09,09,23,09,0.00
2010,09,09,23,10,0.00
2010,09,09,23,11,0.00
2010,09,09,23,12,0.00
2010,09,09,23,13,0.00
2010,09,09,23,14,0.00
2010,09,09,23,15,0.00
2010,09,09,23,16,0.00
2010,09,09,23,17,0.00
2010,09,09,23,18,0.00
2010,09,09,23,19,0.00
2010,09,09,23,20,0.00
2010,09,09,23,21,0.00
2010,09,09,23,22,0.00
2010,09,09,23,23,0.00
2010,09,09,23,24,0.00
2010,09,09,23,25,0.00
2010,09,09,23,26,0.00
2010,09,09,23,27,0.00
2010,09,09,23,28,0.00
2010,09,09,23,29,0.00
2010,09,09,23,30,0.00
2010,09,09,23,31,0.00
2010,09,09,23,32,0.00
2010,09,09,23,33,0.00
2010,09,09,23,34,0.00
2010,09,09,23,35,0.00
2010,09,09,23,36,0.00
2010,09,09,23,37,0.00
2010,09,09,23,38,0.00
2010,09,09,23,39,0.00
2010,09,09,23,40,0.00
2010,09,09,23,41,0.00
2010,09,09,23,42,0.00
2010,09,09,23,43,0.00
2010,09,09,23,44,0.00
2010,09,09,23,45,0.00
2010,09,09,23,46,0.00
2010,09,09,23,47,0.00
2010,09,09,23,48,0.00
2010,09,09,23,49,0.00
2010,09,09,23,50,0.00
2010,09,09,23,51,0.00
2010,09,09,23,52,0.00
2010,09,09,23,53,0.00
2010,09,09,23,54,0.00
2010,09,09,23,55,0.00
2010,09,09,23,56,0.00
2010,09,09,23,57,0.00
2010,09,09,23,58,0.00
2010,09,09,23,59,0.00
